HAWK-5A

Last updated on Tue Sep 22 2026 00:03:52 GMT+0000 (Coordinated Universal Time)

1 52757U 22057AB 26264.24657482 .00014919 00000+0 22825-3 0 9995 2 52757 97.6693 69.5961 0005231 80.2191 279.9653 15.54473569241250
UTC large
Height (km)
Speed (km/s)
/
Latitude / Longitude
Inclination (degrees)
Orbital Period (minutes)
Azimuth
Elevation
Range (km)
Doppler Factor

Next 0 passes for location: London (51.5072 / 0.1276)

No passes found over London.
HAWK-5A